Regional Weather Roundup
Issued by NWS

Home | Current Version | Previous Version | Graphics & Text | Print | Product List | Glossary On
Versions: 1 2 3 4 5 6 7 8 9 10 11 12 13 14 15 16 17 18 19 20 21 22 23 24 25 26 27 28 29 30 31 32 33 34 35 36 37 38 39 40 41 42 43 44 45 46 47 48 49 50
000
ASUS43 KMKX 301900
RWRWI

WISCONSIN REGIONAL WEATHER ROUNDUP
NATIONAL WEATHER SERVICE MILWAUKEE/SULLIVAN WI
200 PM CDT SUN AUG 30 2015

NOTE: "FAIR" INDICATES FEW OR NO CLOUDS BELOW 12,000 FEET WITH NO
SIGNIFICANT WEATHER AND/OR OBSTRUCTIONS TO VISIBILITY.

WIZ001-002-006>008-014>016-023>028-302000-
NORTHWEST WISCONSIN

CITY           SKY/WX    TMP DP  RH WIND       PRES   REMARKS
SUPERIOR ARPT  SUNNY     80  68  66 SW7       29.89F HX  82
ASHLAND        SUNNY     81  63  54 S15G22    29.91F HX  82
HAYWARD        SUNNY     76  61  59 S15G21    29.97F
SIREN          SUNNY     78  63  60 S10       29.95F HX  80
CUMBERLAND     SUNNY     72  63  73 S10       29.99F
RICE LAKE      SUNNY     73  63  72 SE10      30.01F
CHETEK         SUNNY    N/A N/A N/A S9        30.01S
LADYSMITH      SUNNY     76  65  67 S10       30.02F
EAU CLAIRE     NOT AVBL
MENOMONIE      MOSUNNY   75  64  70 S10       30.00F
NEW RICHMOND   SUNNY     77  64  63 S10G16    29.98F
OSCEOLA        SUNNY     76  63  64 S12       30.00F
$$

WIZ003>005-009-010-017-018-302000-
NORTH CENTRAL WISCONSIN

CITY           SKY/WX    TMP DP  RH WIND       PRES   REMARKS
MANITOWISH WTR SUNNY     75  63  65 SW15      29.99F
ARBOR VITAE    SUNNY     77  66  68 SW13      30.00F
WOODRUFF       SUNNY     77  66  68 SW13      30.00F
RHINELANDER    SUNNY     74  61  63 SW10      30.03F
EAGLE RIVER    MOSUNNY   74  59  60 SW8       30.01S
LAND O LAKES   MOSUNNY   77  60  55 SW10G16   30.01S
PHILLIPS       SUNNY     75  65  70 S10G17    30.00F
TOMAHAWK       SUNNY     73  62  68 SW3       30.03F
MEDFORD        MOSUNNY   72  64  76 S9        30.04F
MERRILL        SUNNY     74  64  70 SW6       30.04F
$$

WIZ029-030-035-036-043>047-302000-
CENTRAL WISCONSIN

CITY           SKY/WX    TMP DP  RH WIND       PRES   REMARKS
WAUSAU         SUNNY     74  62  66 S9        30.02F
MOSINEE        NOT AVBL
MARSHFIELD     SUNNY     76  62  62 S12       30.04F
STEVENS POINT  MOSUNNY   72  61  68 SW6       30.05F
WAUPACA        MOSUNNY   74  63  68 S9        30.06S
WAUTOMA        PTSUNNY   73  64  73 SW5       30.06F
WISC RAPIDS    SUNNY     74  61  63 SW9       30.05F
CAMP DOUGLAS   NOT AVBL
$$

WIZ011>013-019>022-031-037>040-048>050-302000-
NORTHEAST WISCONSIN

CITY           SKY/WX    TMP DP  RH WIND       PRES   REMARKS
ANTIGO         SUNNY     73  62  67 SW7       30.05F
SHAWANO        MOSUNNY   74  62  66 SW8       30.04F
OCONTO         PTSUNNY   73  64  71 W9        30.02F
STURGEON BAY   PTSUNNY   72  63  73 SW10      30.06S
GREEN BAY      PTSUNNY   72  63  73 SW10      30.04F
MANITOWOC      NOT AVBL
APPLETON       CLOUDY    70  61  73 SW7       30.05S
CLINTONVILLE   CLOUDY    72  61  68 SW8       30.04F
OSHKOSH        CLOUDY    71  62  73 S7        30.05F
$$

WIZ032>034-041-042-053>061-302000-
SOUTHWEST WISCONSIN

CITY           SKY/WX    TMP DP  RH WIND       PRES   REMARKS
LA CROSSE      CLOUDY    73  64  73 S10       30.04F
SPARTA         MOSUNNY   74  60  61 SW6       30.06S
VIROQUA          N/A     71  63  75 SW9       30.07F
BOSCOBEL       CLOUDY    73  63  70 W7        30.07S
PRAIRIE DU CHI CLOUDY    71  60  67 S5        30.06F
PLATTEVILLE    CLOUDY    72  65  79 SW5       30.08S
$$

WIZ056-057-062-063-064-067-068-302000-
SOUTH CENTRAL WISCONSIN

CITY           SKY/WX    TMP DP  RH WIND       PRES   REMARKS
REEDSBURG      PTSUNNY   72  63  72 S7        30.06F
BARABOO/DELLS  PTSUNNY   73  61  65 SW8       30.07F
LONE ROCK      NOT AVBL
MINERAL POINT  MOSUNNY   73  63  68 S3        30.08F
MADISON        MOSUNNY   71  61  70 S6        30.06F
MIDDLETON      MOSUNNY   75  60  60 SW7       30.08S
WATERTOWN      CLOUDY    70  65  85 S7        30.07S
MONROE         MOSUNNY   72  61  68 SW5       30.08S
JANESVILLE     PTSUNNY   73  61  64 CALM      30.06F
$$

WIZ051-052-058>065-066-070>072-302000-
SOUTHEAST WISCONSIN

CITY           SKY/WX    TMP DP  RH WIND       PRES   REMARKS
MILWAUKEE      PTSUNNY   71  63  75 SE3       30.07F
WAUKESHA       CLOUDY    68  61  77 S5        30.09F
MILWAUKEE/TIMM CLOUDY    72  59  64 SW6       30.08F
RACINE         CLOUDY    71  62  73 NE3       30.09S
BURLINGTON     PTSUNNY   72  59  64 W5        30.08S
KENOSHA        CLOUDY    72  63  73 E3        30.07F
FOND DU LAC    PTSUNNY   72  63  73 VRB7      30.06F
SHEBOYGAN      MOSUNNY   72  63  73 SW5       30.05F
WEST BEND      PTSUNNY   72  59  64 CALM      30.07F
JUNEAU         CLOUDY    70  62  77 S6        30.08F
$$

LSZ147-162-302000-
LAKE SUPERIOR

STATION/POSITION TIME  TEMP    WIND        PRES    WAVE
                       AIR SEA DIR/SP/G            HT/PER
                 (UTC) (F)     (DEG/KT/KT) (MB)    (FT/S)
W MID LAKE BUOY  1750   58 55  220/  8/ 10 1012.3F   1/ 3
DEVILS ISLAND    1800   63     240/  5/  8 1012.4F
PORT WING        1800   77     190/  9/ 12 1012.5F
SAXON HARBOR     1800   80     200/ 11/ 15 1012.5F
$$

LMZ867-665-643>646-302000-
LAKE MICHIGAN

STATION/POSITION TIME  TEMP    WIND        PRES    WAVE
                       AIR SEA DIR/SP/G            HT/PER
                 (UTC) (F)     (DEG/KT/KT) (MB)    (FT/S)
CHAMBERS ISLAND  1800   68     180/  6/ 13 1016.6F
S GREEN BAY BUOY 1800   67 64  210/  8/ 10 1018.7
N MID LAKE BUOY  1750   64 65  210/ 12/ 16 1016.9F   1/ 3
NORTHPORT PIER   1800   67     150/  7/ 11 1016.6F
SHEBOYGAN LAKESH 1800   58     160/  4/  5 1018.5F
PORT WASHINGTON  1840   62     150/  2/  4 1019.0F
ATWATER BUOY     1800   57 52  150/  4/  6 1020.0F
MILWAUKEE LAKESH 1800   57      20/  3/  4   N/A
S MID LAKE BUOY  1750   66 69  320/  8/ 10 1017.9S   1
KENOSHA   LAKESH 1800   58     360/  3/  4 1018.3F
$$

TC  - TEMPERATURE IN CELSIUS
VSB - VISIBILITY IN STATUTE MILES
WCI - WIND CHILL INDEX
HX  - HEAT INDEX



USA.gov is the U.S. government's official web portal to all federal, state and local government web resources and services.